ECMWFFLT1_sfc_thetae_024.txt.gz
Theta_e
288 289 289 290 290 290 290 290 290 290 290 290 290 290 290 291 292 292 292 292 293 293 293 292 292 293 292 293 293 293 293 293 294 294 295 295 296 295 295 295 295 294 294 294 293 293 293 293 292 292 292 291 290 289 289 289 289 289 288 289 289 289
288 288 288 289 289 289 290 290 290 290 290 289 289 290 290 290 290 291 291 292 292 292 292 292 292 292 292 292 292 292 292 293 293 293 293 294 294 294 294 294 294 294 293 293 293 293 292 292 292 291 291 290 290 289 289 289 288 288 288 288 289 289
287 288 288 289 289 289 290 290 289 289 289 289 289 288 289 289 289 290 290 291 291 291 290 291 291 291 291 291 291 291 291 292 292 292 293 293 293 293 293 293 293 293 293 292 292 292 291 291 291 290 290 289 289 289 289 289 288 287 287 288 288 288
286 287 288 289 289 288 288 289 289 289 288 288 288 288 288 288 288 289 289 290 290 290 290 290 290 291 291 290 291 290 290 291 291 292 292 291 292 292 292 292 292 292 292 292 292 291 291 291 290 290 289 289 288 288 289 288 287 287 287 287 287 287
286 287 287 288 288 288 288 288 288 288 288 288 288 287 288 289 289 289 289 289 289 289 289 289 289 289 289 289 290 290 290 290 290 291 290 291 291 291 291 291 291 292 292 291 291 291 290 290 290 289 289 288 288 288 287 288 287 287 286 286 286 287
286 286 287 287 288 288 288 288 288 288 288 288 287 287 287 288 288 289 289 289 288 289 288 288 288 288 288 288 289 289 289 289 290 290 290 290 290 290 291 291 291 291 290 290 290 290 290 289 289 289 288 288 288 287 287 287 287 286 286 286 286 286
286 286 286 287 288 288 288 288 288 288 288 287 287 287 287 288 288 288 288 288 287 288 288 288 288 287 287 287 288 288 288 289 289 289 289 289 289 290 290 290 290 290 290 289 289 289 289 289 289 288 288 288 288 287 287 287 286 286 286 286 286 286
286 286 286 286 287 288 288 288 287 287 287 287 287 286 287 287 288 288 287 287 287 287 287 287 287 287 287 287 287 288 288 288 288 288 288 289 288 288 289 288 289 289 289 289 289 289 289 289 288 288 288 287 287 287 287 287 286 286 286 286 286 286
284 285 286 286 286 287 288 288 287 286 286 286 286 286 286 287 287 287 287 287 286 287 287 286 286 286 286 286 286 287 287 287 287 288 287 288 287 287 287 287 287 287 288 288 288 288 289 288 288 288 287 287 287 286 286 286 286 286 286 285 285 285
285 285 285 285 286 287 287 288 287 286 286 286 286 285 285 286 286 286 286 286 286 286 286 287 286 286 286 286 286 286 286 286 286 286 287 287 288 288 288 287 287 287 287 287 287 287 288 288 288 288 288 287 287 286 285 286 286 286 285 285 285 285
284 284 285 285 285 285 286 287 287 287 286 286 285 284 284 285 285 285 285 285 285 285 286 287 287 287 287 287 286 286 286 285 285 285 285 286 286 287 287 288 287 287 287 286 286 286 287 287 287 288 287 286 286 286 285 285 285 285 285 285 285 285
284 284 285 285 285 285 285 286 286 286 285 285 285 284 284 284 284 284 284 284 284 285 286 286 286 286 286 286 286 286 286 285 285 285 285 285 286 286 286 286 287 287 287 287 286 286 286 286 287 287 287 288 286 286 286 285 285 285 285 285 284 284
284 284 284 284 285 285 285 286 286 286 285 285 284 284 284 284 283 284 284 283 284 284 285 285 285 285 285 286 286 286 285 285 285 285 285 285 285 285 286 286 286 286 286 286 287 287 286 286 286 287 289 289 289 287 286 285 285 285 285 285 284 284
284 284 284 284 285 285 285 285 286 285 284 285 284 283 283 283 283 283 283 283 283 283 283 283 283 283 283 284 285 285 285 284 284 284 284 284 284 285 285 285 285 286 286 286 286 286 286 287 287 288 288 289 289 288 286 285 285 285 285 285 284 284
284 284 284 284 285 285 285 286 285 284 284 284 283 283 282 282 282 282 282 282 282 282 283 282 282 281 281 283 284 284 284 283 283 283 283 283 284 284 284 285 285 285 285 285 285 285 286 286 287 288 289 289 289 289 288 286 285 285 285 285 285 284
284 285 285 285 285 285 285 286 285 285 284 284 283 282 281 281 281 281 281 281 281 281 282 281 280 280 280 282 283 283 282 282 281 282 282 282 283 283 284 284 284 284 285 285 285 285 285 285 286 288 288 289 289 289 289 286 285 285 285 285 285 284
284 285 285 284 284 285 285 285 285 284 283 283 282 281 280 280 280 280 280 280 280 280 280 280 279 278 279 280 282 281 280 280 280 280 280 280 281 282 283 283 283 284 284 284 284 284 284 285 286 287 287 288 288 289 289 287 286 285 285 285 284 284
283 284 284 285 285 284 284 284 284 283 282 282 281 280 280 279 279 279 279 279 279 279 279 279 277 277 277 278 280 280 279 278 278 277 278 278 279 281 283 283 283 283 283 284 284 284 283 284 286 286 286 287 288 288 287 286 286 285 285 285 285 283
284 284 285 284 284 283 283 283 283 282 281 281 280 280 279 279 278 278 278 278 278 278 278 278 276 276 276 277 278 278 277 276 275 276 276 276 278 279 280 281 282 282 283 283 283 283 283 283 285 285 286 286 287 287 286 286 285 285 285 285 285 284
285 284 284 283 282 282 282 282 281 280 279 279 279 279 278 278 277 277 277 277 278 278 277 277 275 275 275 276 276 275 275 274 274 274 275 275 276 277 279 280 281 281 282 282 281 282 282 283 284 285 285 286 286 286 285 285 285 285 285 285 285 284
283 283 282 281 281 281 281 280 279 278 277 278 278 277 277 276 277 277 277 277 277 277 276 275 275 274 274 274 274 273 272 272 272 273 274 274 276 276 278 279 280 280 281 282 281 282 282 282 283 284 285 285 285 285 285 285 284 284 284 285 284 284
281 281 280 280 280 281 280 279 278 277 276 276 277 276 275 276 276 277 277 277 276 276 275 274 273 273 273 273 272 272 271 271 271 272 272 273 274 274 275 276 278 278 279 280 280 281 281 282 282 283 284 284 285 285 284 284 284 283 284 284 284 282
280 279 279 279 279 279 278 277 276 275 275 276 275 274 275 276 276 276 275 275 274 274 273 273 272 272 272 271 270 270 270 270 270 270 271 271 272 272 273 274 275 276 277 279 280 280 281 281 281 282 283 284 284 285 285 284 284 284 284 284 283 282
278 278 278 278 278 278 277 276 274 274 274 274 273 274 275 275 275 274 273 273 272 272 271 271 271 271 270 270 269 268 268 269 269 269 269 270 270 270 271 272 273 275 276 278 280 280 280 281 281 281 282 283 284 284 285 283 284 285 284 283 283 282
276 276 276 277 277 276 276 275 272 272 272 272 272 274 274 273 273 272 272 271 270 270 269 269 269 268 268 268 268 267 267 267 267 267 268 268 268 269 270 271 273 274 276 277 279 280 280 280 281 281 281 282 283 283 284 285 284 285 285 283 282 281
275 274 275 275 274 274 274 273 271 271 270 270 272 272 272 271 271 270 269 269 268 268 268 268 267 267 267 267 267 266 266 266 266 266 267 267 268 268 269 271 273 274 276 277 278 279 280 280 281 281 281 281 282 283 284 284 285 285 284 284 283 282
272 271 271 272 272 272 271 271 269 269 268 269 271 270 269 269 268 267 267 266 266 266 266 266 266 266 266 266 266 265 265 265 265 265 266 266 267 268 268 270 272 273 275 276 277 278 279 280 280 280 280 281 281 282 283 283 284 285 285 284 283 283
270 269 268 269 269 269 269 269 268 266 266 268 268 267 267 266 265 264 264 264 264 264 264 264 264 264 265 265 265 264 264 264 264 264 265 265 266 267 268 269 271 273 274 275 276 277 278 279 280 279 279 279 280 280 281 282 283 283 284 284 284 284
267 266 266 265 266 266 266 265 265 264 264 264 265 264 264 263 262 261 262 262 262 262 262 262 262 263 263 263 263 264 264 264 264 264 264 265 265 266 267 269 270 272 273 274 275 276 277 278 279 279 279 279 278 278 279 280 280 282 283 283 283 283
264 264 263 263 263 263 263 262 262 262 262 262 262 261 261 260 260 260 260 260 260 261 261 261 261 261 261 262 262 262 262 263 263 263 263 264 265 265 266 267 269 270 271 273 275 276 276 277 278 278 278 278 278 278 278 279 279 280 280 281 282 282
262 261 261 261 261 261 261 261 261 261 261 260 260 260 259 259 259 259 258 259 259 259 260 260 260 260 260 260 261 261 262 262 262 262 263 264 265 266 266 267 268 269 271 272 274 274 275 276 276 278 280 279 279 278 277 277 278 279 279 281 283 280
260 259 259 259 260 260 260 259 260 260 260 260 260 259 258 258 258 258 258 258 259 259 259 259 260 260 260 260 260 260 260 264 267 265 263 263 267 270 272 272 269 270 271 272 273 275 275 275 277 280 281 281 281 281 280 280 280 281 280 281 283 281
259 259 258 259 259 259 259 259 259 259 259 260 260 259 258 258 258 258 258 258 258 259 259 259 259 259 259 259 260 260 260 260 262 267 269 269 270 271 272 274 275 276 277 275 273 276 279 280 280 281 282 282 282 282 281 281 281 282 282 282 281 279
258 258 258 259 259 258 258 258 258 258 259 259 259 259 258 258 258 257 258 258 258 258 259 259 259 259 259 259 259 259 259 259 259 261 266 269 269 270 271 272 272 273 274 275 275 274 273 276 279 281 281 282 282 282 282 282 282 282 282 282 283 277
258 258 258 258 258 257 257 257 258 258 259 259 259 259 258 258 257 257 257 258 258 258 259 259 258 259 259 258 259 259 259 259 259 259 259 262 266 268 269 269 270 271 272 273 274 275 275 276 276 279 281 282 282 282 282 282 282 283 283 283 280 276
258 257 257 257 257 257 257 257 257 258 258 258 258 258 257 257 257 257 257 257 258 258 258 258 258 258 259 259 259 259 259 259 259 259 259 258 259 261 264 267 269 270 271 273 274 275 276 277 278 279 280 282 282 283 283 282 281 282 283 282 279 278
257 257 257 257 257 257 257 257 257 258 258 258 258 257 257 257 257 257 258 258 258 258 258 258 258 258 258 259 258 259 259 259 259 259 259 258 258 258 259 260 263 268 271 270 272 276 278 279 279 280 281 282 283 283 283 283 280 278 279 280 280 278
256 256 257 257 257 257 256 256 257 258 258 257 257 257 256 257 257 257 257 258 258 258 258 258 258 258 258 258 258 258 259 259 259 259 259 259 259 259 259 260 261 263 266 270 272 273 275 279 280 280 281 282 282 283 282 279 277 277 277 278 279 278

ECMWFFLT1_sfc_thetae_027.txt.gz
Theta_e
287 288 288 289 289 290 290 290 290 290 290 290 290 289 290 290 291 291 291 292 292 292 291 291 291 292 292 292 293 293 292 292 292 292 293 293 294 294 294 295 295 295 296 296 295 295 295 295 295 295 294 294 293 293 292 292 292 291 291 291 291 291
287 287 287 288 288 288 289 289 289 288 289 289 289 289 289 289 290 290 290 291 291 291 290 290 291 291 291 291 291 291 291 291 291 291 291 292 292 292 292 293 293 294 294 294 295 294 294 294 294 294 294 293 292 292 291 291 291 290 290 290 290 291
287 287 289 289 289 289 289 289 288 288 288 287 287 286 287 287 289 289 289 289 289 289 289 289 289 289 290 290 291 289 290 290 291 291 291 291 291 292 291 291 292 292 292 293 293 293 293 293 293 293 293 292 291 291 291 291 290 289 289 289 289 289
289 289 289 290 290 290 290 290 290 289 289 289 287 287 287 287 287 288 288 289 288 288 288 288 289 289 289 288 289 289 289 289 290 290 290 290 291 291 291 291 291 292 292 292 292 292 292 292 292 292 292 291 291 290 291 291 290 289 289 289 288 289
288 287 288 288 289 289 289 289 288 288 288 288 288 287 287 288 288 288 288 288 287 287 288 288 287 287 287 287 288 287 288 288 289 289 289 289 290 291 291 290 290 290 290 290 291 291 291 292 292 292 291 291 290 290 290 290 289 289 288 288 288 288
290 287 287 288 288 289 289 289 288 288 288 288 287 287 287 288 288 288 288 288 287 288 287 287 287 286 285 286 287 286 287 287 288 288 288 289 289 288 289 290 290 290 290 289 289 290 290 290 291 291 291 290 289 289 289 289 289 289 288 288 288 288
286 286 287 287 287 288 289 289 288 288 288 288 287 286 287 287 288 287 288 287 287 287 287 287 286 286 286 286 286 286 287 286 286 287 287 287 287 288 288 289 289 289 289 289 289 289 289 289 290 290 290 290 289 289 289 289 289 288 288 288 288 288
286 286 286 286 286 287 287 288 288 288 288 287 287 286 286 286 287 286 287 286 286 286 286 287 287 286 285 285 286 287 287 286 286 286 286 286 286 287 287 288 288 288 288 288 288 288 288 289 289 289 289 289 289 289 289 289 288 288 288 288 288 288
285 286 286 286 286 286 286 287 287 287 287 287 287 287 286 286 286 286 285 286 285 285 285 286 286 286 286 286 285 286 287 287 287 286 285 285 285 285 286 286 286 287 287 287 287 287 287 287 288 288 289 289 289 289 288 288 288 288 288 287 287 287
285 285 285 285 286 286 286 286 287 287 287 286 287 287 286 286 285 285 285 285 285 285 285 285 286 286 286 286 286 286 286 286 286 286 286 286 285 285 285 285 285 285 286 286 287 287 287 287 286 287 287 288 288 288 288 287 287 287 287 287 287 287
284 285 285 285 285 285 285 286 286 287 287 287 286 286 286 286 285 284 284 284 284 284 284 285 285 286 286 285 285 285 286 286 286 285 285 285 285 286 285 285 285 284 285 285 286 286 287 286 286 286 286 286 286 287 287 287 287 286 286 286 286 287
284 285 285 285 285 285 285 285 285 286 286 286 286 286 286 285 284 283 283 283 283 284 284 284 284 284 284 284 284 284 285 285 286 285 284 284 284 285 285 285 285 284 284 284 284 285 286 286 287 287 288 288 286 286 286 286 286 286 286 286 286 286
285 285 285 285 285 285 285 285 286 286 286 286 286 285 285 285 283 283 283 282 283 283 283 283 283 283 283 283 283 282 283 285 285 284 284 284 284 283 283 284 284 285 285 285 284 284 285 285 286 288 290 290 290 288 286 286 286 286 286 286 285 285
284 284 284 284 285 285 285 285 285 285 285 285 285 285 285 284 283 282 282 282 283 283 282 282 282 282 282 282 281 281 282 283 284 283 283 282 282 282 282 282 282 283 284 284 285 285 285 285 286 288 289 290 290 289 287 286 286 285 285 285 285 285
284 284 284 285 285 285 285 285 285 284 285 285 285 285 284 283 282 282 282 282 282 282 282 282 281 281 281 281 281 280 280 281 282 282 281 281 281 281 280 280 281 282 283 283 284 284 284 284 286 287 288 288 289 289 289 287 286 286 285 285 285 285
284 285 285 285 286 286 286 286 285 285 286 285 285 284 283 283 282 282 281 281 281 281 281 281 281 280 280 281 280 279 279 279 280 281 281 280 279 279 279 279 279 280 282 283 283 283 283 284 285 286 287 287 288 288 288 286 286 286 286 286 285 285
284 284 285 285 285 285 286 285 285 285 284 284 283 283 282 282 281 281 281 280 281 281 281 280 280 280 280 280 279 278 277 278 278 279 279 278 278 277 277 277 277 279 280 281 282 282 282 283 285 286 286 287 287 288 288 286 286 286 286 286 286 286
284 284 284 286 285 285 285 284 284 283 282 283 282 281 281 281 281 280 280 280 280 280 280 280 279 279 279 279 278 277 276 277 277 277 278 277 276 276 276 276 277 278 278 279 280 281 281 282 284 285 286 287 287 287 286 285 285 285 285 285 286 286
285 285 285 284 284 283 283 283 282 281 281 280 279 279 279 279 279 279 280 279 279 279 279 279 278 278 278 278 277 276 275 275 275 276 277 275 274 274 274 274 275 276 277 278 279 279 280 281 283 285 285 286 286 286 284 284 284 284 284 285 285 286
285 284 283 282 282 282 282 282 281 280 279 278 278 278 278 278 278 278 278 278 278 278 278 278 278 277 277 277 275 275 275 275 275 275 275 273 272 272 272 273 274 275 276 277 277 278 279 279 281 284 284 285 285 285 283 283 283 283 284 284 285 286
282 282 282 281 280 280 280 280 279 278 277 276 276 276 276 276 276 277 277 277 277 277 277 277 277 276 276 275 274 274 273 273 273 274 273 272 272 271 272 272 272 273 274 274 275 277 277 278 280 283 283 284 284 284 283 283 282 282 282 283 283 285
281 280 280 279 279 280 279 278 278 276 275 275 275 274 274 274 275 276 275 275 276 276 275 275 274 274 274 273 273 273 272 273 272 272 271 271 271 270 270 271 271 270 271 272 273 274 275 275 276 279 282 283 284 285 283 283 282 281 281 282 283 283
279 278 278 278 278 278 277 276 275 274 273 273 272 272 273 273 274 273 273 274 274 274 273 273 273 272 272 272 271 271 271 271 271 270 269 269 269 269 269 269 269 269 269 270 270 271 272 274 275 277 280 282 283 284 284 282 281 281 281 282 282 283
278 277 277 277 276 275 274 274 272 271 271 270 270 271 272 272 272 271 271 271 271 271 271 270 270 270 269 270 270 269 269 269 269 269 268 268 268 267 267 267 267 267 268 269 269 270 271 273 275 275 278 281 283 284 284 282 281 282 281 281 281 282
275 275 274 274 273 273 272 271 269 269 269 268 269 270 270 269 269 268 268 268 268 267 266 266 266 266 267 267 267 267 267 267 267 267 267 266 266 266 265 266 266 266 266 267 269 270 271 273 275 278 278 281 282 284 284 284 283 284 283 281 280 281
273 272 271 271 271 271 270 269 267 267 266 266 268 267 267 266 266 265 265 264 264 263 263 263 263 264 264 264 264 264 264 264 265 265 265 265 265 265 264 265 265 266 266 266 267 269 271 272 274 277 279 280 282 283 284 285 285 285 282 282 281 282
269 269 268 269 269 268 268 267 265 264 264 265 266 265 264 264 263 262 262 261 261 261 261 261 261 261 262 262 262 262 262 262 263 263 264 264 264 264 264 264 265 265 265 266 266 267 269 271 273 274 277 280 281 283 283 284 284 285 285 283 282 283
267 266 266 266 266 266 266 265 264 262 263 264 264 263 263 262 261 260 260 260 260 260 260 260 260 260 261 261 262 262 262 262 262 262 262 263 263 263 263 263 264 264 264 265 266 267 269 271 272 273 276 279 280 281 282 283 283 283 284 284 283 284
265 264 264 263 264 264 264 263 263 263 263 262 263 262 262 261 260 259 259 259 259 260 260 259 259 260 260 261 261 261 262 262 262 262 262 262 262 262 262 262 263 263 264 264 265 266 268 269 271 273 275 277 278 278 279 280 280 282 283 282 282 282
263 262 262 261 262 263 262 262 262 262 262 262 262 261 261 260 259 259 259 259 259 259 259 259 260 260 260 260 260 260 260 261 261 261 260 260 261 261 261 261 262 262 262 263 264 265 266 267 269 270 272 274 277 278 279 279 279 278 279 279 280 280
261 261 261 260 262 262 261 261 261 262 262 261 261 260 259 259 259 259 258 259 259 258 259 259 259 260 259 260 260 260 261 260 260 260 260 262 262 261 261 260 261 262 262 263 263 263 264 265 267 269 275 275 278 278 278 278 278 278 278 280 281 280
261 260 260 260 261 261 261 261 261 261 261 261 260 260 259 258 258 258 258 258 258 258 259 259 259 259 259 259 259 259 260 263 266 265 262 262 265 268 269 269 264 264 265 264 265 265 264 265 267 273 275 276 278 279 280 281 281 281 280 280 282 281
260 259 259 260 261 260 260 260 260 260 260 260 260 260 259 258 258 258 257 258 258 258 258 258 258 259 259 259 259 259 259 259 261 266 268 268 267 268 269 270 271 271 271 268 266 268 272 273 274 275 275 276 277 278 279 280 280 281 282 282 280 278
259 259 259 260 260 259 259 259 259 259 260 260 260 260 259 258 257 257 257 257 257 258 258 258 258 258 258 259 259 259 259 259 258 259 265 267 268 268 269 269 270 271 271 271 270 268 267 270 272 273 274 274 275 276 277 279 280 281 282 282 282 278
259 259 259 259 259 258 259 258 259 259 259 260 260 259 258 258 257 257 256 257 257 257 258 258 258 258 258 258 258 258 259 258 258 257 258 261 266 267 268 268 269 269 270 270 271 271 270 270 271 273 274 274 275 276 276 277 278 279 281 282 280 278
259 259 258 258 258 258 258 258 258 259 260 260 260 259 258 257 257 257 257 257 257 257 257 257 258 258 258 259 259 258 258 259 259 258 258 258 258 260 263 266 267 268 268 269 269 269 270 270 271 272 273 274 275 275 276 277 275 278 279 279 278 278
258 258 258 258 258 258 258 258 259 260 260 260 259 258 258 257 257 257 258 258 258 257 257 258 258 258 258 258 258 258 258 258 259 259 258 258 257 257 258 258 260 264 267 265 266 268 270 270 271 272 273 274 275 276 277 278 274 273 274 275 277 278
257 257 258 258 258 258 258 258 259 260 260 259 259 258 257 257 257 257 257 258 258 258 258 258 258 259 259 259 259 259 259 259 259 258 258 259 259 258 258 259 260 260 265 268 269 270 270 271 272 273 273 273 275 276 277 273 273 273 274 275 278 278

ECMWFFLT1_sfc_thetae_030.txt.gz
Theta_e
283 283 284 284 285 285 285 285 285 284 284 283 283 283 284 284 285 284 285 285 287 287 286 285 286 286 286 286 286 285 285 285 285 284 285 285 286 286 287 286 286 287 287 287 287 288 288 287 287 287 287 286 287 286 287 286 286 286 286 286 286 286
283 283 283 283 285 285 286 285 285 284 284 283 284 284 284 284 284 284 284 285 285 285 284 284 285 285 285 285 285 284 284 285 285 285 285 285 285 285 285 285 285 286 286 286 286 286 287 287 287 286 286 287 287 287 287 287 285 286 286 286 285 286
284 284 284 285 285 285 286 285 285 285 286 285 284 284 284 284 284 285 285 285 284 283 283 283 283 283 284 283 284 284 284 284 284 284 284 285 285 285 285 285 285 285 285 285 285 286 286 286 286 286 285 285 286 286 286 286 285 285 285 285 285 285
284 284 285 285 285 286 285 286 285 285 285 285 285 285 284 283 284 284 284 284 284 283 283 284 284 284 284 283 284 283 283 283 283 284 284 284 284 284 284 284 285 285 285 285 285 284 284 285 286 286 286 286 286 285 287 286 285 285 285 284 284 284
284 285 284 284 285 285 285 285 285 285 285 284 284 283 283 284 284 284 284 282 282 281 281 281 281 283 283 283 283 282 283 283 283 283 282 282 283 284 284 284 284 284 284 284 284 284 284 284 285 286 285 285 285 285 285 286 285 285 285 284 284 284
283 284 284 286 285 284 284 285 284 283 283 283 283 282 281 281 281 282 282 283 282 281 281 280 281 280 280 280 281 282 282 282 282 282 282 282 282 283 283 284 284 284 284 284 284 284 284 284 284 285 285 285 284 284 285 285 285 285 285 285 285 284
280 281 281 281 281 281 281 282 282 282 282 282 282 282 281 280 280 280 280 280 280 280 280 280 280 280 279 279 279 279 280 281 281 281 280 280 280 281 281 282 282 282 282 283 283 284 284 284 284 284 284 284 284 284 284 284 284 284 284 284 285 286
281 281 281 281 281 281 281 281 281 281 282 282 282 282 281 280 280 279 279 279 279 279 279 279 279 279 279 280 280 279 280 281 280 280 280 280 280 280 280 280 281 281 281 281 281 282 283 284 284 284 284 284 284 284 284 284 284 284 284 284 284 284
280 280 280 280 280 280 280 280 280 280 280 280 280 280 280 280 279 279 278 278 278 278 278 278 279 279 279 279 280 279 279 280 280 280 280 280 279 279 279 280 279 280 280 280 281 281 282 282 283 284 284 284 284 284 284 285 285 285 285 285 285 284
279 280 280 280 280 280 280 280 280 281 281 281 280 280 280 281 279 278 278 278 278 278 278 279 279 279 280 280 280 279 278 278 279 279 280 280 280 279 279 279 280 280 279 280 280 280 281 281 282 282 283 283 283 284 284 284 284 284 285 285 285 285
279 279 279 279 280 279 279 280 279 280 280 280 280 280 280 280 279 278 277 277 278 278 278 278 278 278 279 279 279 279 279 279 278 279 279 280 280 281 280 279 279 279 279 279 279 280 280 281 281 282 282 282 282 283 283 284 284 284 284 284 285 285
279 279 279 279 279 279 279 279 279 279 280 280 280 280 280 281 279 278 277 277 278 278 278 278 278 278 278 278 278 278 278 278 278 278 278 279 279 279 279 279 279 278 278 278 278 279 280 281 282 284 286 287 285 283 283 283 283 284 284 284 284 284
279 279 279 279 279 279 280 280 280 280 279 279 279 279 279 280 279 278 277 277 278 278 278 278 278 278 278 278 278 278 278 278 278 277 277 278 278 278 278 278 278 277 277 277 277 278 279 280 281 285 287 288 288 286 284 283 283 283 283 283 283 283
278 278 278 279 279 279 279 279 280 279 279 279 279 279 279 279 278 277 277 277 278 278 278 278 278 278 278 278 277 278 278 278 277 277 277 277 277 277 278 277 277 277 277 277 277 277 277 279 283 285 286 286 287 287 284 283 283 283 283 283 283 284
278 278 279 278 279 280 280 279 279 279 279 279 280 278 278 277 277 278 278 278 278 278 278 278 277 277 277 277 277 277 278 277 277 276 276 276 276 277 277 277 277 276 276 276 275 275 277 277 282 284 285 285 286 286 286 283 282 282 282 283 283 283
278 278 278 279 279 278 279 280 279 279 279 278 277 277 277 277 278 278 278 278 278 278 278 278 277 277 277 277 277 277 277 276 276 276 276 275 275 275 276 276 276 276 275 275 275 275 276 276 280 282 284 284 285 286 286 283 282 282 282 282 282 283
279 278 278 279 279 278 279 278 278 278 277 277 277 277 276 277 277 277 277 277 277 277 277 277 277 277 277 277 277 276 276 276 276 275 275 275 274 274 274 274 274 274 274 274 274 274 274 275 279 281 282 283 285 286 286 283 282 282 282 282 282 282
277 277 277 278 278 278 277 277 277 276 276 276 275 275 274 275 275 275 276 276 276 276 276 276 276 276 275 275 275 275 275 275 275 275 275 274 274 274 274 274 274 273 273 273 273 273 273 274 279 280 281 282 283 284 282 282 281 281 281 281 281 281
276 277 277 277 277 277 276 276 276 275 275 275 274 274 274 274 274 274 274 274 275 275 275 275 274 273 274 274 274 273 273 273 273 273 274 273 273 272 272 272 272 273 272 272 272 271 272 272 276 278 279 280 282 282 280 280 280 280 280 280 280 280
276 276 277 275 275 275 275 275 274 274 274 273 273 272 272 272 271 272 272 272 273 273 272 272 272 272 272 272 271 271 271 271 272 272 272 271 271 271 271 271 271 271 271 271 271 271 271 271 274 277 278 279 280 280 277 278 278 278 279 279 279 280
276 276 275 274 274 274 273 273 272 272 271 271 271 270 269 269 270 270 270 270 271 271 270 270 270 270 270 269 269 269 268 268 268 269 270 269 270 269 270 270 270 270 270 270 270 272 271 270 272 276 277 278 278 277 276 276 276 276 277 278 278 279
275 274 273 273 272 272 272 271 270 269 269 269 269 268 268 268 269 269 269 269 268 268 267 268 268 268 267 265 265 265 265 266 266 267 267 267 268 267 268 268 268 268 268 269 269 269 269 269 269 271 275 276 277 278 275 274 273 273 274 276 277 278
274 273 272 272 271 270 270 269 267 267 267 267 267 266 267 268 268 267 267 266 265 265 265 265 265 264 263 263 263 264 264 264 264 264 264 264 265 265 265 266 266 266 266 267 268 268 268 268 268 269 274 276 276 277 276 273 273 274 275 275 276 277
272 271 270 270 269 269 268 267 265 265 265 265 264 265 266 266 265 265 264 263 263 262 262 262 262 262 262 262 262 261 261 262 262 262 262 263 262 262 262 263 263 264 264 265 266 266 266 268 270 268 272 274 275 276 277 273 272 274 273 274 275 276
269 269 268 268 267 267 267 265 263 264 264 263 264 265 264 264 264 263 262 262 261 261 261 261 260 260 261 260 261 260 260 260 260 261 261 261 261 261 261 261 262 262 262 263 264 265 265 266 267 271 269 273 274 275 276 277 276 278 276 275 274 275
267 267 267 266 265 265 265 263 262 262 262 262 264 264 263 262 262 261 261 260 260 260 260 260 260 260 260 260 260 259 259 259 259 260 260 260 260 260 260 261 261 261 261 261 262 263 265 265 266 269 271 270 273 274 275 276 277 278 276 276 275 276
265 265 264 265 264 263 262 261 261 261 260 262 262 262 261 261 260 260 259 259 259 259 259 259 259 259 259 259 259 258 259 259 259 259 259 260 260 260 259 260 260 260 260 261 261 262 263 264 265 265 268 271 272 273 274 275 276 277 278 275 276 278
262 262 262 262 262 262 260 260 259 259 260 262 262 261 261 260 259 259 258 258 258 258 259 258 258 258 259 259 259 259 259 259 259 259 259 259 259 259 259 259 260 260 260 260 261 261 262 264 264 265 266 267 268 269 271 272 274 275 277 277 276 279
262 261 261 260 261 260 260 259 260 260 261 260 261 261 260 259 258 258 258 258 258 258 258 258 258 258 258 259 259 259 259 259 259 259 259 259 258 258 259 259 259 259 259 259 259 260 261 261 262 263 263 264 265 265 266 267 269 272 274 274 276 278
260 260 259 259 260 260 260 259 259 260 260 260 260 259 259 258 258 258 257 257 257 258 258 257 259 258 258 258 258 258 258 259 259 258 258 258 258 258 258 258 258 258 259 258 259 259 259 260 260 261 262 263 263 264 266 267 269 269 271 273 275 277
258 258 258 258 259 259 259 259 259 259 259 260 259 259 258 258 258 258 257 257 257 257 258 258 257 257 257 257 258 258 258 258 258 258 259 260 260 260 259 259 259 260 260 260 260 260 260 260 261 262 267 266 269 267 267 267 268 269 270 273 276 275
258 257 257 258 259 258 258 258 259 259 260 259 259 258 258 258 257 257 257 257 257 257 257 257 257 257 257 257 257 257 258 261 266 264 262 261 265 269 270 269 264 265 265 264 265 265 264 263 265 270 271 271 272 272 273 274 274 275 273 275 277 275
257 257 257 258 258 258 258 258 258 258 259 259 259 259 258 257 257 257 257 257 257 257 257 257 257 257 257 257 257 257 257 257 259 265 267 267 267 268 269 270 271 271 271 268 265 267 271 272 272 272 272 272 272 273 273 274 274 274 275 276 273 272
256 256 257 258 258 257 257 257 258 258 258 259 259 259 258 258 257 257 257 257 257 257 257 257 257 257 257 257 257 257 257 257 256 258 263 267 267 268 269 269 270 270 270 271 269 267 266 269 271 272 272 272 272 273 273 273 274 274 275 275 276 271
257 257 257 257 256 256 257 257 257 258 258 259 259 258 258 258 257 257 256 256 257 257 257 257 257 257 257 256 257 257 257 257 257 256 257 260 265 267 268 268 269 270 270 270 270 271 270 270 270 271 272 272 272 273 273 273 274 274 275 275 271 270
256 256 256 256 256 256 256 256 257 258 259 259 259 258 258 257 257 257 257 256 257 257 257 257 257 257 257 257 257 257 257 257 258 257 257 257 258 259 262 266 267 268 269 269 269 270 270 270 270 271 272 272 273 273 273 273 271 275 276 274 270 270
256 256 256 257 257 256 256 257 258 259 259 258 258 258 258 257 257 257 257 258 258 257 257 257 257 257 257 258 257 258 258 258 258 258 258 257 257 257 257 258 259 264 268 265 267 269 270 271 271 272 272 273 273 273 274 274 270 269 270 270 270 270
255 255 256 256 256 256 256 257 258 259 258 258 258 257 257 257 257 257 257 257 257 257 257 257 257 258 258 258 258 258 258 259 259 258 258 259 259 258 258 259 260 260 265 268 269 270 270 270 271 271 272 272 273 274 274 269 269 269 269 269 270 271

ECMWFFLT1_sfc_thetae_033.txt.gz
Theta_e
282 281 282 281 281 282 282 282 283 283 283 282 281 282 282 282 283 282 283 282 283 284 282 281 282 281 281 281 281 281 281 281 281 281 282 282 283 283 284 284 284 285 285 285 285 285 285 285 285 285 286 286 286 287 287 286 286 285 286 286 285 286
282 282 282 282 282 283 283 283 284 284 284 284 283 283 283 284 284 284 284 283 282 282 281 281 281 281 282 282 282 282 282 282 282 282 281 281 281 281 281 282 283 284 284 284 285 285 285 285 285 285 285 285 285 285 286 286 286 285 285 286 286 286
283 284 284 284 284 283 284 284 285 285 284 283 283 282 282 281 282 282 282 283 284 283 283 283 283 283 283 282 282 282 282 282 283 283 283 283 282 282 282 281 281 281 282 283 283 283 284 284 284 285 285 285 285 285 285 285 285 285 285 285 285 284
283 284 284 283 283 283 283 282 282 281 282 282 281 280 280 280 280 280 280 280 281 281 282 282 282 282 281 280 280 280 280 280 281 281 282 282 283 283 282 282 282 282 281 281 281 282 283 283 283 284 284 284 284 285 286 286 285 284 284 284 284 284
281 280 280 281 283 283 282 281 282 282 281 281 281 280 280 280 280 280 279 279 279 279 279 279 280 280 280 279 280 280 280 280 280 281 280 281 281 282 282 282 282 281 282 282 282 281 282 282 282 283 283 283 283 283 284 285 284 284 284 284 284 284
280 280 280 280 280 281 282 282 282 281 281 281 280 280 279 279 279 279 279 278 278 277 277 277 278 278 278 278 278 278 279 279 280 280 280 280 279 280 281 281 280 280 280 281 281 281 281 281 281 282 282 282 283 283 283 283 283 283 284 284 284 284
278 279 278 279 279 280 280 280 281 280 280 279 279 279 279 278 278 278 278 278 277 277 277 276 277 277 277 277 278 278 278 278 278 279 279 279 279 279 279 280 279 280 279 280 279 280 280 280 281 281 281 282 282 282 282 282 282 282 283 283 284 285
279 279 280 279 279 279 279 279 279 279 279 279 279 280 279 279 278 278 278 277 277 277 276 277 276 277 277 277 277 278 278 278 278 278 278 278 279 279 279 279 279 279 279 279 279 279 279 280 280 280 280 281 281 281 281 282 282 282 282 282 283 283
278 278 278 278 278 277 277 278 278 278 278 278 278 278 278 279 278 278 277 276 276 277 277 278 278 278 278 278 278 278 278 278 278 278 278 278 278 278 278 278 278 278 278 278 279 278 278 278 279 279 280 280 280 281 281 281 281 281 281 282 282 282
277 277 278 278 278 277 277 277 278 279 279 280 280 279 279 280 278 278 278 277 277 277 278 278 278 278 279 279 278 278 278 278 277 277 277 277 277 277 278 278 278 278 278 278 278 278 278 278 278 278 278 279 280 280 280 280 281 281 281 281 281 282
278 278 277 278 277 277 278 278 278 278 278 278 278 278 279 278 279 278 277 277 277 277 277 278 278 279 278 278 278 278 279 278 278 278 277 277 277 278 277 277 277 277 278 278 277 277 277 278 278 278 278 278 279 279 279 280 280 280 280 281 281 282
278 278 278 278 278 278 278 278 278 279 279 279 279 278 278 279 278 277 277 277 277 277 277 278 278 278 278 278 278 278 278 278 278 278 278 278 278 277 277 277 277 277 277 277 277 277 277 277 278 280 282 283 281 280 280 281 281 280 280 280 280 281
277 277 277 278 278 278 279 279 278 278 277 277 278 278 278 277 277 276 276 276 277 277 277 277 278 278 277 278 278 278 278 278 278 277 277 277 277 277 277 277 276 276 276 276 276 276 276 277 277 280 282 283 283 281 280 281 281 281 281 280 280 280
276 276 277 277 277 277 277 277 277 277 277 277 277 277 276 276 275 276 276 276 276 276 276 277 277 277 277 277 277 277 277 277 276 276 276 276 276 277 277 276 276 276 276 276 276 276 276 276 279 281 282 282 283 282 280 280 280 281 280 280 280 280
277 277 276 276 276 277 276 276 276 276 276 276 276 275 276 275 275 275 275 275 275 276 276 276 276 276 276 276 275 275 275 275 275 275 275 275 276 276 275 275 276 275 276 275 275 275 275 275 279 280 281 281 282 282 281 279 279 279 279 280 280 280
276 276 276 276 276 276 276 276 276 276 276 275 275 275 275 275 275 275 274 274 274 275 275 275 274 274 274 274 273 273 273 272 272 273 274 274 274 274 274 274 274 274 274 274 274 274 274 274 277 279 280 280 281 282 281 278 278 278 279 279 280 280
275 275 275 276 276 276 275 275 275 274 274 274 274 274 274 274 273 273 273 273 273 273 273 272 272 271 271 271 271 270 270 271 271 272 272 272 272 272 272 272 272 272 272 273 273 273 273 273 277 278 279 280 281 281 281 277 277 277 277 278 278 279
276 275 276 276 275 274 274 273 273 273 273 273 273 272 271 272 271 271 271 271 271 271 271 270 269 269 268 268 268 268 268 269 269 268 269 269 269 269 270 270 270 270 270 270 271 270 270 271 276 277 278 279 279 280 276 275 275 275 275 275 276 277
276 276 275 274 273 273 272 272 272 271 271 270 270 269 269 269 268 269 269 269 269 269 268 268 267 266 266 266 266 266 266 266 265 265 266 265 266 266 266 266 267 268 268 268 268 268 269 269 272 276 277 277 278 277 274 274 273 273 273 273 274 275
275 275 274 272 272 271 271 271 270 269 268 268 268 266 267 266 266 267 266 267 267 267 266 265 265 264 264 264 263 263 263 263 263 263 264 263 263 263 264 264 265 265 266 266 266 267 267 267 270 274 275 276 276 275 272 272 271 271 271 272 273 273
274 273 272 271 270 270 270 268 267 266 266 266 266 265 264 264 266 265 265 265 265 265 264 264 263 263 262 262 262 262 261 261 261 262 262 262 262 262 263 263 262 263 263 264 265 267 266 265 267 271 272 273 274 272 270 270 270 270 271 271 271 272
272 271 270 269 269 268 267 266 265 264 265 265 265 264 263 264 264 264 264 264 264 263 263 262 262 262 261 261 261 261 261 261 261 261 261 261 261 261 261 261 261 261 261 262 263 263 264 264 264 266 271 272 273 274 270 270 269 269 270 271 271 271
271 270 269 269 268 267 266 265 263 263 263 264 263 262 263 264 264 263 263 263 262 262 261 261 261 260 260 260 260 260 260 260 260 260 260 259 260 260 260 260 260 260 261 261 262 262 263 263 264 265 270 271 272 273 272 268 269 269 269 269 270 270
268 268 267 266 266 265 264 263 261 262 261 261 261 261 263 263 262 262 261 261 261 260 260 259 260 260 260 260 260 259 259 260 260 259 259 259 259 259 259 259 259 259 260 261 261 262 262 264 266 264 268 270 271 272 273 269 268 269 269 268 269 269
267 266 266 266 264 264 264 261 259 260 260 260 261 262 262 262 261 261 260 260 259 259 259 259 258 259 259 259 259 258 258 259 258 259 259 258 258 258 258 258 259 259 259 259 260 261 262 262 263 267 266 269 271 272 272 272 271 273 270 268 268 268
265 265 264 264 263 262 262 260 259 259 259 260 262 262 261 260 260 259 259 259 258 258 258 258 258 258 258 258 258 258 258 258 258 258 258 258 258 258 258 258 258 258 258 258 259 260 261 262 262 265 268 267 270 271 272 273 273 273 269 269 268 268
263 263 262 263 261 261 260 260 258 258 257 260 260 260 259 259 258 258 258 257 257 257 258 258 258 258 257 258 258 257 258 257 257 257 258 258 258 257 257 257 258 257 257 258 258 259 260 261 261 262 265 269 270 271 272 272 273 273 273 268 268 268
260 260 260 261 261 260 259 259 258 256 259 260 259 259 258 258 257 257 257 257 257 258 258 257 257 257 258 258 258 258 258 257 257 257 257 257 257 257 257 257 257 257 257 257 258 259 259 261 261 261 262 264 266 267 269 270 271 271 272 271 269 272
260 259 259 258 259 259 258 257 257 258 259 258 259 259 257 256 257 257 257 257 257 257 257 257 257 258 258 258 258 258 258 258 257 257 257 257 256 256 257 257 257 257 258 258 259 259 260 260 261 261 262 263 263 263 264 264 265 269 270 267 266 268
260 258 258 258 259 258 257 257 256 257 257 257 258 256 256 256 257 257 257 257 257 257 257 257 258 258 257 257 257 257 257 257 257 256 256 256 257 257 257 258 258 259 259 259 260 261 261 262 262 263 263 263 263 263 264 264 264 264 264 264 265 265
258 258 257 257 258 257 256 255 256 256 257 258 257 256 255 256 257 257 256 257 257 257 258 257 257 257 257 256 257 257 257 256 256 257 258 260 260 260 260 260 262 263 264 264 263 263 263 264 264 265 269 268 271 269 268 267 267 266 265 267 270 268
257 257 256 257 257 256 255 255 256 256 258 256 255 255 255 256 256 256 256 257 257 257 257 257 257 257 257 256 256 256 257 261 265 264 261 261 265 268 270 269 265 266 266 265 266 266 265 264 266 271 273 273 273 273 274 273 273 273 272 273 275 273
257 256 255 256 256 255 255 256 256 256 256 257 257 256 256 255 256 256 256 257 256 257 257 257 256 257 257 257 257 256 256 256 258 265 267 267 267 268 270 270 271 271 271 268 266 267 272 272 273 272 272 273 273 273 273 274 274 274 275 276 272 270
256 256 256 256 256 255 255 255 256 255 255 255 256 256 255 255 256 256 256 256 257 257 257 257 257 257 256 257 257 256 256 256 256 257 264 267 267 268 269 270 270 271 271 271 270 268 266 270 272 273 272 273 273 273 274 274 274 275 275 276 276 270
257 257 256 255 254 254 254 255 255 255 255 256 256 255 255 256 256 256 256 256 256 257 257 257 256 256 256 256 256 256 256 256 256 256 257 260 266 268 268 269 270 270 270 271 271 272 271 271 272 272 272 273 273 273 273 274 275 276 276 276 272 269
255 255 254 253 253 254 254 254 255 255 256 256 256 256 255 255 255 256 256 256 256 256 256 256 256 256 257 257 257 257 257 257 257 257 257 257 258 260 263 267 268 269 270 270 271 271 272 272 272 273 272 272 273 273 274 274 272 275 276 274 270 269
254 253 254 255 254 254 254 255 255 255 255 255 255 254 254 255 255 256 256 257 257 256 256 256 257 257 257 257 257 257 257 257 258 258 258 258 258 258 258 259 261 265 269 267 268 270 271 271 272 273 273 272 273 274 275 274 270 268 268 269 269 269
253 253 253 254 254 252 254 255 256 255 254 254 254 254 254 255 256 255 256 256 256 256 256 256 256 257 257 257 257 258 258 259 259 258 258 259 259 259 259 259 260 261 266 269 269 270 270 271 272 272 273 273 274 274 274 269 267 267 267 268 268 269

ECMWFFLT1_sfc_thetae_036.txt.gz
Theta_e
283 283 283 283 283 283 283 284 283 283 282 281 280 281 281 281 282 281 282 282 283 283 282 281 282 282 281 281 280 279 280 280 279 279 279 280 280 280 280 280 280 280 280 281 281 281 281 282 282 283 283 283 283 283 284 284 284 284 284 285 285 285
282 282 282 283 284 284 284 283 282 282 282 282 283 282 282 282 283 282 282 283 283 282 282 282 282 282 281 280 280 280 280 280 280 280 280 280 281 280 280 280 280 280 279 280 280 280 280 280 280 281 281 282 282 282 283 283 284 283 283 283 284 285
280 281 280 281 282 281 282 283 284 284 284 283 282 281 280 279 279 278 279 280 281 280 280 280 279 279 279 278 279 279 279 280 280 280 280 280 280 280 280 280 280 280 280 280 280 280 280 280 281 281 280 279 280 281 281 282 282 282 283 283 284 284
282 283 283 283 282 282 283 282 281 281 282 282 280 279 279 279 280 279 278 279 279 278 278 278 278 279 278 277 277 278 278 279 279 279 279 279 280 280 280 280 280 280 280 279 280 279 279 280 280 280 279 279 279 279 281 282 281 281 281 282 282 282
284 283 283 283 284 284 283 283 283 283 281 281 279 279 280 279 280 279 278 278 278 277 277 276 277 277 277 277 278 277 278 278 278 279 279 279 279 279 279 280 280 280 280 280 280 280 279 279 279 279 278 278 278 279 279 280 280 280 280 281 281 281
282 281 281 281 281 281 282 282 281 280 280 279 279 278 279 279 278 279 279 279 278 276 276 276 276 276 276 276 277 276 277 277 277 278 278 278 278 278 279 278 279 279 279 279 279 279 279 279 279 279 279 278 278 278 278 279 279 279 280 280 281 281
278 279 279 279 279 279 279 279 280 279 280 279 279 279 278 277 277 277 277 277 277 276 276 275 275 275 276 276 276 276 276 276 277 277 277 277 278 278 278 278 277 277 278 278 278 278 278 279 279 279 279 279 278 278 278 278 278 278 278 279 280 281
278 278 278 278 278 279 278 278 279 279 279 279 278 278 278 278 277 276 276 276 276 276 275 276 276 276 276 276 276 276 276 277 276 276 276 276 277 277 277 277 277 277 277 278 278 278 278 278 278 278 278 278 278 278 278 278 278 278 278 278 279 279
278 278 278 278 278 278 278 279 278 278 279 279 278 278 278 278 277 277 276 276 275 276 276 276 276 276 276 276 277 277 277 277 276 276 276 276 276 276 276 276 276 277 277 277 277 277 277 277 278 278 277 277 277 277 277 277 278 278 278 278 278 279
278 278 278 277 278 278 278 278 278 278 278 278 278 277 278 278 277 276 276 276 276 276 276 276 276 276 277 277 277 277 277 277 277 277 277 277 277 276 276 276 276 276 276 276 276 277 277 277 277 277 277 277 276 276 276 277 277 277 277 278 278 279
278 278 278 278 278 277 278 278 277 277 277 277 277 277 277 277 277 276 275 275 275 275 275 276 276 276 276 276 276 276 276 276 276 277 276 276 276 277 276 276 276 276 276 276 276 276 276 276 276 276 276 276 276 277 276 277 277 277 277 278 278 279
278 278 278 278 277 277 277 276 276 277 277 277 276 277 276 275 275 275 275 275 275 275 275 275 275 275 275 275 275 275 275 275 275 275 274 274 274 274 275 274 275 275 275 275 275 276 276 276 276 278 280 281 279 278 278 278 277 277 277 277 277 278
277 277 276 276 276 276 276 277 276 276 276 276 275 275 275 274 274 274 274 274 274 274 274 274 274 274 274 274 274 273 273 273 273 272 272 272 272 272 273 273 273 274 274 274 274 274 275 275 276 279 280 281 282 279 278 277 277 277 277 277 276 276
276 276 276 275 275 276 276 276 276 275 275 275 275 274 274 274 274 274 273 273 273 273 273 273 273 272 272 272 271 271 271 270 270 270 270 270 270 271 272 271 272 272 272 272 272 272 273 273 276 279 279 280 280 280 277 277 277 277 276 276 276 276
276 276 275 275 276 276 276 276 275 275 274 274 274 274 273 273 273 273 272 272 272 272 272 271 270 270 269 269 269 269 268 268 268 267 268 268 269 269 269 269 269 269 269 270 269 270 270 271 274 276 277 278 278 279 278 276 276 276 276 276 276 276
275 275 276 276 276 275 275 274 274 274 273 273 273 273 272 272 272 271 271 270 270 270 270 269 268 267 267 267 267 266 266 266 266 266 267 267 267 266 266 266 266 266 267 267 267 267 268 268 271 274 275 276 277 277 277 274 274 274 274 274 274 274
275 275 275 275 275 274 273 273 273 272 272 272 271 271 270 269 269 268 269 268 268 268 267 267 266 266 265 265 265 264 264 264 264 265 265 265 264 264 264 264 264 264 265 265 265 265 265 265 270 272 273 274 275 276 276 273 273 273 273 274 274 274
276 275 275 275 273 273 272 272 272 271 270 270 270 268 268 268 266 267 267 266 266 266 267 265 264 264 263 263 263 263 263 263 263 263 263 263 263 263 263 263 263 263 263 263 263 263 262 263 269 271 272 273 274 275 271 270 269 269 269 270 271 271
276 275 274 273 272 271 271 271 270 268 268 267 266 266 266 266 265 266 266 265 265 264 264 264 263 262 262 262 261 261 261 262 262 262 262 261 261 261 261 261 261 262 262 262 262 261 262 262 266 270 271 272 273 272 268 268 268 268 268 268 269 269
275 274 272 271 270 270 270 268 267 267 266 265 266 264 265 264 264 265 263 263 262 263 263 262 261 261 261 260 260 260 261 261 261 261 261 260 260 260 260 260 260 261 261 261 261 261 261 261 265 269 270 271 272 271 268 268 267 267 268 268 269 269
274 272 271 270 269 269 268 266 265 265 265 265 265 264 263 263 264 263 262 263 263 263 262 261 261 261 260 260 260 260 260 260 260 260 261 260 260 260 260 260 260 260 260 260 260 263 262 261 263 268 269 270 271 269 268 268 267 267 267 267 267 268
271 270 269 268 268 267 266 264 264 263 264 264 264 263 261 263 262 263 262 262 262 262 260 260 260 260 259 259 259 259 259 260 259 259 259 259 259 259 259 259 259 258 259 260 260 260 261 261 261 263 269 270 271 272 268 268 267 266 266 267 267 267
272 270 268 268 267 265 264 263 262 262 263 263 262 260 262 262 262 262 261 262 260 260 259 259 259 259 259 259 259 259 259 259 259 259 258 258 258 258 258 258 258 258 259 259 260 260 260 261 261 262 268 270 271 271 271 267 267 267 267 266 267 267
268 267 266 266 266 264 263 262 261 261 261 261 260 260 262 262 261 261 259 259 258 259 258 258 258 258 258 258 258 258 258 259 258 258 258 258 258 257 257 258 258 258 258 259 260 260 260 262 264 262 266 269 270 271 272 268 267 268 267 267 267 268
267 266 265 265 264 264 263 259 259 259 260 259 260 261 261 261 260 260 259 258 258 257 257 257 257 257 258 258 258 257 257 258 257 257 258 257 257 257 257 257 257 257 257 258 259 259 260 260 261 266 265 269 270 271 272 272 271 273 270 268 267 267
266 265 264 264 262 262 262 259 258 258 258 259 261 260 260 258 258 257 256 256 256 256 256 256 256 257 257 257 257 257 257 257 257 257 257 257 257 256 256 257 257 257 257 257 257 258 259 260 261 264 267 267 270 271 272 273 274 274 271 270 269 269
265 264 263 263 261 260 259 258 257 257 256 259 259 259 258 257 256 255 255 255 255 255 256 256 256 256 256 256 256 256 257 257 256 256 257 257 256 256 256 256 256 256 256 257 257 258 259 260 261 261 264 269 270 271 272 273 274 274 274 270 269 269
262 261 261 261 260 260 258 258 257 255 257 259 259 258 257 255 254 254 255 254 255 255 255 255 256 256 256 256 257 257 257 256 256 256 256 256 256 256 256 256 256 256 257 257 258 259 261 262 262 262 262 265 267 268 270 272 272 273 273 273 271 274
261 260 259 259 259 258 258 256 257 257 257 256 258 258 255 253 253 255 255 255 255 255 255 255 256 256 257 256 257 257 257 257 256 256 256 256 256 256 256 257 257 258 258 259 260 261 262 263 263 264 264 264 264 264 265 267 267 270 271 269 268 270
261 260 259 259 259 259 257 256 256 256 256 256 257 254 253 253 253 254 254 254 254 255 255 255 257 257 256 256 256 256 256 256 256 255 256 256 257 257 257 258 259 259 260 261 262 263 264 264 265 265 266 266 266 267 267 267 266 265 265 265 265 265
260 259 258 258 259 257 256 255 255 255 256 257 255 253 252 253 254 254 254 254 254 254 256 256 256 255 256 256 256 256 256 256 256 257 258 260 260 260 260 260 262 264 265 265 265 264 264 265 265 266 270 270 273 271 270 270 270 269 267 267 270 267
258 258 257 258 258 256 255 254 254 254 257 254 253 253 252 253 253 252 253 254 254 254 255 255 255 255 256 255 255 256 256 260 265 264 262 262 265 269 270 270 266 267 267 267 267 267 266 266 267 272 274 273 274 275 275 275 275 275 274 275 277 275
258 256 256 257 256 255 255 255 254 254 254 255 255 254 253 252 253 253 254 254 254 255 256 255 255 255 255 256 256 256 256 256 258 264 266 267 267 269 270 271 271 272 272 269 267 269 272 273 273 274 274 274 273 273 275 275 275 275 276 276 273 271
257 257 256 257 256 254 254 254 254 253 254 253 253 253 253 252 252 253 254 254 254 256 256 255 256 256 255 256 256 255 256 255 255 257 264 267 267 268 269 270 270 271 271 271 270 269 267 270 273 273 274 274 274 274 274 275 275 276 276 276 276 270
258 257 256 255 254 253 253 253 254 253 253 254 253 253 252 252 252 253 253 254 255 255 256 256 255 255 255 255 255 255 255 256 255 255 256 259 266 268 268 268 269 269 270 270 271 271 271 271 272 273 273 273 274 274 274 275 275 275 275 275 270 267
256 256 254 253 252 253 252 253 254 253 253 253 253 253 252 252 252 252 253 254 254 255 255 255 255 255 255 256 256 255 256 256 257 257 257 257 257 259 263 267 268 268 269 269 270 270 270 271 271 272 272 273 273 273 273 273 269 272 273 271 267 267
255 254 254 254 253 253 253 254 254 253 253 252 251 250 250 251 252 252 255 256 256 254 255 255 256 256 255 256 255 256 256 257 257 258 257 257 257 257 257 258 260 264 268 266 267 269 270 270 270 271 272 272 272 271 271 269 263 263 264 265 265 266
254 253 253 254 254 252 253 254 254 254 252 251 250 250 250 252 253 253 254 254 255 255 255 255 255 255 255 255 256 257 257 257 257 257 257 257 257 257 257 258 259 259 264 267 267 268 268 269 270 271 271 269 269 269 268 261 260 260 261 262 263 263

ECMWFFLT1_sfc_thetae_042.txt.gz
Theta_e
280 280 280 280 279 280 279 279 279 279 279 279 279 279 279 279 279 279 279 279 280 280 278 278 278 278 278 277 277 277 277 277 277 277 277 277 277 277 277 277 277 277 277 277 277 277 276 276 276 276 276 276 276 276 276 276 276 276 276 277 278 278
280 280 280 280 280 280 281 281 281 280 280 280 279 278 278 277 278 278 278 278 279 278 278 277 277 278 277 277 277 277 277 276 276 276 276 277 277 276 276 276 276 276 276 276 276 276 276 276 276 276 275 275 275 275 275 276 275 275 275 276 276 278
280 280 280 281 280 280 280 279 279 280 279 278 278 278 278 278 278 278 278 278 277 277 277 277 277 276 277 276 276 276 276 276 277 276 276 276 276 276 276 276 276 276 276 275 276 275 275 275 275 275 275 275 275 275 275 275 275 275 275 275 275 275
280 280 280 279 280 280 280 280 280 280 280 280 280 280 279 278 278 278 277 277 277 276 276 276 276 276 276 276 276 275 275 275 275 275 275 275 275 275 275 275 275 275 275 275 275 275 274 274 274 274 275 274 274 274 276 275 275 274 274 275 274 275
280 280 280 281 281 282 282 282 283 283 281 280 279 278 277 277 278 277 277 277 277 276 275 276 275 275 275 275 275 274 274 274 274 275 274 274 274 274 274 274 274 274 274 273 274 273 273 274 273 274 274 274 274 274 274 275 275 274 274 274 274 274
280 281 281 282 283 283 283 283 282 281 279 278 277 277 277 277 277 277 277 276 275 275 275 275 274 274 274 274 274 273 274 274 274 274 274 274 273 273 273 273 273 273 272 272 272 272 272 273 273 273 273 274 274 274 274 274 274 274 274 274 274 274
281 282 283 283 283 282 281 280 279 279 279 278 278 278 277 277 277 277 276 275 275 275 275 274 274 274 274 273 273 273 273 273 273 273 273 272 272 272 272 272 271 271 271 271 271 272 272 272 272 272 272 273 273 273 273 274 274 274 274 274 274 276
282 282 281 281 280 280 280 280 279 279 279 279 277 277 277 277 276 275 275 275 275 275 274 274 273 274 273 273 273 273 273 273 272 272 272 271 270 271 271 270 270 271 270 271 271 271 271 271 271 271 271 271 272 272 272 272 273 273 274 274 274 275
280 280 280 280 280 280 280 280 280 279 278 278 278 277 277 276 276 275 275 274 274 274 274 273 273 273 273 273 273 272 272 271 271 270 270 270 269 269 269 269 269 270 270 270 270 270 269 269 270 270 270 270 271 271 271 272 272 272 273 273 273 274
280 279 280 279 280 280 280 280 280 279 279 278 277 276 276 277 276 275 275 274 274 273 273 273 273 272 272 272 271 271 270 270 269 269 269 268 268 268 268 268 268 268 268 269 268 268 268 268 268 269 269 269 270 271 271 271 271 271 271 272 272 272
279 279 279 279 279 279 279 279 277 276 276 276 276 275 276 276 275 274 274 273 273 273 273 273 272 272 271 271 270 269 269 268 268 267 267 267 267 267 267 267 267 266 266 266 266 266 267 267 267 268 268 269 270 271 271 271 271 271 271 271 271 272
280 280 279 278 279 279 278 277 277 277 277 276 275 275 274 275 274 274 273 273 272 272 272 271 271 270 270 269 268 267 266 266 266 266 265 265 265 265 266 265 265 265 265 265 265 265 265 266 266 268 271 273 272 272 271 271 271 271 271 271 270 271
280 279 278 279 278 279 278 278 277 276 276 275 274 274 274 274 273 272 272 272 271 271 270 269 268 268 267 267 266 264 264 265 263 262 263 262 263 263 264 264 264 264 264 264 264 264 264 265 265 269 272 274 274 273 272 271 271 271 271 270 270 270
279 278 279 279 278 278 278 277 276 276 276 274 274 274 273 272 272 271 270 270 270 269 268 268 267 266 265 265 264 263 262 262 261 261 261 261 262 263 262 263 263 263 263 263 263 263 263 264 267 270 272 273 274 274 272 272 271 271 270 270 270 270
279 279 279 278 278 278 278 277 276 276 275 274 274 272 271 271 270 270 269 269 268 267 267 266 264 263 262 262 262 261 260 260 261 260 260 260 260 261 261 262 262 262 263 263 262 262 263 263 266 270 272 273 274 274 274 271 271 270 270 269 269 268
279 279 279 279 279 278 277 277 277 276 275 274 272 271 270 270 269 268 268 267 266 266 266 264 262 262 262 261 261 261 260 259 259 259 260 260 261 261 261 260 261 261 261 262 261 261 262 262 265 270 272 272 273 274 274 271 270 269 268 268 268 267
278 278 277 277 277 276 276 275 275 274 272 272 270 269 269 268 268 267 267 265 265 264 263 264 262 261 261 261 260 259 259 259 259 260 260 259 261 260 260 260 259 260 260 260 260 261 261 261 267 270 271 272 273 274 274 270 269 268 267 268 268 268
278 278 278 277 276 275 276 275 273 272 271 269 269 268 267 266 266 266 265 264 264 263 264 262 261 261 260 261 259 258 260 259 258 259 259 259 259 258 259 259 259 259 259 260 259 259 260 261 267 269 270 272 273 274 270 269 268 267 267 267 267 268
279 278 277 275 276 275 275 273 272 271 269 268 266 266 265 265 264 265 265 263 263 263 262 263 261 260 259 259 259 257 258 259 258 258 258 258 259 259 258 258 258 259 259 259 259 259 259 259 264 268 270 271 273 271 269 268 268 267 267 267 268 268
276 275 276 275 274 273 272 271 270 269 268 267 265 265 265 264 265 264 263 263 262 263 262 262 259 260 258 258 257 257 259 258 257 257 257 258 258 258 257 258 258 258 258 258 258 258 258 259 263 268 269 270 271 271 269 268 267 267 267 267 268 268
275 275 273 273 272 271 270 269 268 268 267 266 265 265 264 264 264 264 263 263 262 262 260 260 259 259 258 257 258 257 257 256 256 257 256 257 256 257 257 257 257 257 257 258 258 261 261 259 261 266 268 270 271 270 269 269 268 267 267 267 267 268
272 272 272 272 272 269 267 267 268 267 267 265 264 264 264 265 264 264 263 263 262 261 259 259 259 259 257 258 257 256 256 256 256 256 256 256 256 256 256 257 257 256 257 257 258 258 259 259 259 261 268 270 271 272 270 269 268 267 267 267 267 267
275 275 274 274 271 267 267 267 267 267 265 264 264 264 265 264 263 262 262 262 260 258 258 258 257 256 256 256 255 256 255 255 257 256 255 256 256 255 256 256 256 256 257 257 258 258 259 259 259 261 268 270 271 273 272 269 269 268 268 268 268 268
272 271 270 269 268 267 266 267 268 267 264 264 265 265 264 263 262 262 260 259 259 258 257 256 255 256 255 254 254 254 255 254 254 255 255 255 255 255 255 255 256 256 256 257 258 258 258 260 262 261 266 270 271 273 274 271 270 271 271 270 270 270
272 272 272 268 267 266 266 266 267 265 264 265 266 264 262 262 261 261 260 258 257 256 255 254 254 254 254 254 254 254 254 254 253 253 254 254 254 254 254 254 255 255 256 256 257 258 259 259 260 265 265 269 272 273 274 274 274 275 273 271 270 270
273 272 269 267 266 266 266 266 267 265 264 266 264 262 261 261 260 259 258 256 255 254 254 253 253 253 252 252 253 252 253 253 253 253 252 254 254 254 254 255 255 255 255 255 256 258 259 260 261 264 269 269 272 274 275 275 275 276 273 272 272 272
272 271 268 266 265 265 265 265 267 264 264 264 262 262 260 259 258 257 255 254 253 252 252 251 251 251 250 252 252 252 253 253 251 253 253 253 254 254 254 254 254 254 255 256 257 259 260 262 264 265 268 271 272 274 274 275 275 276 276 273 272 272
268 268 267 265 264 264 263 263 265 265 264 261 261 261 259 257 256 255 254 252 251 252 251 251 252 251 252 252 252 253 253 253 253 253 254 254 254 253 253 254 254 254 256 257 259 261 263 264 265 266 267 269 270 271 273 274 275 275 275 275 273 275
269 268 267 266 263 263 262 261 261 262 260 260 260 260 257 256 256 256 254 254 253 251 250 251 252 252 252 251 252 252 253 253 252 253 254 254 253 253 253 254 255 256 257 259 261 262 264 265 266 267 267 268 268 269 270 272 272 274 275 273 272 273
270 269 267 267 265 263 262 261 261 259 259 259 260 257 256 256 256 256 254 252 250 252 251 252 255 255 253 253 252 252 253 252 253 253 253 254 254 254 254 254 256 258 260 261 262 262 264 266 267 267 267 268 269 271 272 272 272 271 271 271 271 271
269 270 268 269 266 263 262 262 261 259 259 260 257 256 256 256 255 253 252 251 250 251 253 253 252 252 253 252 252 252 253 253 253 254 255 257 257 257 257 257 258 260 261 262 263 265 266 266 266 267 271 271 274 272 272 271 270 271 270 271 273 270
269 269 268 267 264 263 263 262 261 259 261 259 257 256 256 256 255 253 254 253 252 250 251 252 251 251 252 251 252 252 253 258 262 261 259 259 264 267 269 268 264 265 268 268 268 268 266 266 268 272 274 274 274 275 274 273 273 273 270 271 272 268
267 267 266 266 264 263 263 262 260 259 259 258 257 257 256 256 256 256 256 254 254 253 253 252 252 252 252 252 252 252 253 253 256 262 265 266 266 268 269 270 271 272 272 270 268 269 271 272 272 272 273 274 274 273 273 273 272 271 270 270 265 261
266 266 267 266 263 263 262 261 260 258 257 257 256 257 256 255 256 256 256 255 254 255 255 254 253 253 253 253 253 253 253 252 252 254 260 264 265 266 267 268 270 271 271 270 270 268 267 269 271 272 273 273 272 272 272 271 270 269 269 268 265 257
267 267 266 263 262 261 260 260 258 257 257 257 256 256 255 255 256 256 256 255 255 255 255 254 254 254 253 252 252 252 251 252 251 252 253 257 263 265 265 267 268 269 268 269 269 270 269 270 271 272 272 272 271 271 271 270 268 267 267 265 258 255
264 264 263 261 260 259 258 258 257 257 257 256 256 256 256 256 256 257 256 255 255 254 254 253 253 253 253 253 253 252 253 252 253 252 253 254 254 256 260 262 264 265 266 267 268 269 269 269 270 271 272 271 270 270 269 268 262 265 265 262 256 256
262 260 260 259 258 258 258 259 257 257 256 256 255 256 256 256 256 255 255 256 256 255 254 254 255 254 253 253 253 253 252 253 253 254 254 253 253 253 254 255 256 260 263 263 265 266 268 269 269 270 270 270 269 269 267 264 256 255 256 256 254 255
260 259 258 258 257 258 258 258 257 257 257 256 255 256 256 256 256 256 256 255 255 255 255 254 253 254 254 253 253 253 253 253 254 254 253 253 254 254 254 254 255 256 260 263 265 265 266 268 269 269 269 268 268 267 264 255 254 254 254 255 255 255

ECMWFFLT1_sfc_thetae_045.txt.gz
Theta_e
281 281 281 281 281 281 281 281 281 281 281 281 282 282 282 281 282 281 281 281 282 281 281 280 280 280 280 280 280 280 279 279 279 279 278 279 279 278 278 278 278 278 278 278 277 277 277 277 277 278 277 277 277 277 277 278 278 277 277 278 278 278
281 281 281 281 281 281 281 281 281 281 281 282 281 282 281 282 282 282 281 281 281 280 280 280 280 280 279 279 279 278 278 278 278 278 278 278 278 278 278 277 277 277 277 277 277 276 276 276 276 277 276 276 276 276 276 277 277 276 276 277 277 278
281 281 281 281 281 282 281 281 281 282 282 281 282 281 281 281 281 281 281 280 280 280 279 279 279 278 278 278 278 278 278 278 278 278 278 278 277 277 277 276 276 276 276 276 276 275 275 275 275 276 276 276 275 276 276 276 276 275 276 276 276 277
281 281 282 282 282 282 281 281 281 281 281 281 281 280 280 280 280 281 280 280 279 279 278 278 278 278 278 277 277 277 277 277 277 277 277 276 276 276 275 275 275 275 275 274 274 274 274 275 275 275 275 274 274 274 275 275 275 275 275 275 275 276
281 281 282 282 282 282 281 281 281 281 280 280 280 280 280 281 281 280 280 279 278 277 277 277 277 277 277 277 276 276 276 276 276 276 275 274 274 275 275 274 274 274 274 273 273 274 274 274 273 273 273 273 273 273 273 274 274 274 273 274 274 274
281 281 281 281 281 281 281 281 281 281 280 281 281 281 281 280 280 279 279 278 277 277 277 277 277 276 276 276 276 275 275 275 275 274 273 273 273 273 273 273 273 273 273 272 272 272 272 272 272 272 272 272 272 272 272 272 273 273 273 273 273 274
280 281 282 282 282 282 282 282 282 282 281 280 280 280 280 279 279 279 278 278 277 277 277 276 276 276 275 275 275 274 274 273 273 273 272 272 272 272 272 272 272 272 271 271 271 271 271 271 271 271 271 271 272 271 272 272 272 273 273 273 273 273
281 281 282 282 283 283 283 283 283 282 281 280 280 279 279 279 279 278 278 277 277 276 276 276 275 275 275 274 274 273 273 272 272 271 271 271 270 271 271 270 270 271 270 270 270 270 270 270 270 270 270 270 271 271 272 272 272 272 272 273 273 273
281 281 282 283 283 283 284 283 282 282 281 280 280 279 279 279 278 278 278 277 277 276 276 275 275 275 274 273 273 272 271 271 270 270 269 270 269 269 269 269 269 269 269 269 269 269 269 269 269 269 269 269 270 271 272 272 272 272 272 272 273 273
281 282 282 283 283 283 283 282 282 282 281 281 280 279 279 279 278 277 277 277 276 276 275 275 274 274 273 272 272 271 270 269 269 268 268 268 268 268 268 267 267 268 268 268 267 268 268 268 268 268 268 269 271 272 272 272 272 272 272 272 273 273
282 282 282 282 283 282 282 282 282 281 281 281 280 279 279 279 278 277 276 276 275 275 275 274 273 273 272 271 270 269 268 268 268 267 267 267 267 267 267 267 267 266 266 266 267 267 267 267 267 267 268 271 272 272 272 272 272 272 272 272 272 272
282 281 281 281 282 282 281 281 282 281 280 280 279 279 279 278 278 276 276 275 274 274 273 272 272 271 270 269 268 267 267 267 266 266 266 266 266 266 266 266 266 266 265 265 266 266 266 266 266 267 271 273 273 273 272 272 272 272 272 271 271 271
281 281 281 281 281 281 282 282 282 281 280 280 278 278 277 278 277 276 276 275 273 272 271 270 270 269 268 268 267 266 266 266 265 265 264 264 264 264 265 265 265 265 265 265 265 265 265 265 266 269 272 273 274 274 273 272 272 272 272 271 271 270
281 281 281 281 281 282 282 281 281 280 279 279 278 277 276 276 276 275 274 273 272 271 270 269 268 267 267 266 265 265 264 264 263 263 263 263 263 264 264 264 264 264 264 264 264 264 264 265 267 270 272 273 274 275 273 272 272 272 272 271 271 270
281 281 281 281 281 281 282 282 281 280 279 278 277 275 275 275 275 274 272 271 270 269 268 267 266 266 265 264 264 264 263 262 263 262 262 262 263 263 263 263 263 263 263 263 263 263 263 264 266 269 271 273 274 274 274 272 272 271 271 270 269 269
282 282 282 281 282 282 282 281 281 280 279 277 275 274 274 274 273 272 271 269 269 268 267 266 265 265 264 263 263 263 262 262 262 262 262 262 262 262 262 262 262 262 262 262 262 262 263 263 265 269 272 273 273 274 274 272 271 271 269 269 268 268
281 281 280 280 281 280 279 279 279 277 275 275 274 274 273 272 272 270 270 268 268 267 266 266 264 264 263 263 262 262 262 261 261 262 262 261 262 262 261 261 261 261 261 261 261 261 261 262 267 269 271 272 273 274 274 271 270 269 269 269 269 269
280 280 280 280 279 279 279 279 277 276 275 273 274 272 272 271 270 269 268 267 266 266 265 264 263 263 263 262 261 261 262 261 261 261 261 261 261 261 261 261 261 260 260 260 260 260 260 261 266 268 270 272 273 274 271 270 269 269 269 269 269 269
280 280 279 278 278 278 278 277 275 275 272 272 271 270 270 269 269 269 268 267 266 265 265 265 263 262 262 261 261 260 260 261 260 260 260 259 260 260 260 259 259 260 260 259 259 259 260 260 263 268 270 271 273 272 269 269 269 269 268 269 269 269
278 278 278 277 277 277 276 274 274 273 272 271 269 269 269 269 269 269 267 266 265 265 264 264 262 261 261 260 259 260 262 260 260 259 259 259 259 259 259 259 258 259 259 259 258 259 259 260 263 268 269 271 272 272 269 269 268 268 269 269 270 270
277 276 276 276 276 275 274 273 272 272 271 270 269 269 269 269 269 268 267 266 265 264 263 262 262 262 260 260 261 259 259 259 259 259 258 258 258 258 258 258 258 258 258 258 258 260 261 260 261 266 268 270 271 271 270 270 269 268 269 269 269 270
274 274 274 274 276 273 272 271 272 272 271 269 269 268 269 270 269 268 267 266 264 263 262 262 261 260 259 260 259 258 258 258 257 257 258 257 257 257 257 257 257 256 257 258 258 258 259 259 260 261 268 270 271 272 270 270 269 269 269 269 269 269
276 276 276 276 274 271 271 271 271 271 270 269 268 269 271 270 268 266 265 264 263 262 261 261 260 259 258 259 258 259 257 257 259 258 257 256 256 256 256 256 256 257 257 258 259 259 259 259 260 261 268 270 271 272 272 270 270 270 270 270 270 271
273 273 272 272 271 270 270 271 271 272 269 268 268 271 270 267 266 265 263 263 262 261 260 258 258 258 257 256 256 256 256 256 256 256 256 256 256 255 255 256 256 256 257 258 258 258 259 260 262 262 266 270 271 273 274 272 272 273 272 271 271 271
273 273 274 271 269 269 269 270 271 270 268 268 271 270 266 265 264 264 263 262 260 259 258 257 256 256 255 255 256 255 255 255 254 254 254 254 254 254 254 255 256 256 256 257 258 259 259 260 261 265 266 270 272 274 274 275 274 276 274 272 271 272
274 274 272 269 269 268 269 270 271 270 268 270 271 266 264 263 263 262 261 260 259 258 257 255 254 254 254 255 255 254 254 254 254 254 253 254 254 255 255 256 256 256 256 256 257 258 260 261 263 265 269 270 272 274 275 275 276 276 274 274 273 273
274 273 271 269 268 268 268 269 271 270 269 271 266 265 263 262 261 261 260 259 257 256 255 253 253 253 252 253 254 254 254 254 251 254 254 254 254 255 254 255 254 255 255 256 257 259 261 263 265 266 268 271 272 273 274 275 276 276 277 273 272 272
270 269 271 269 267 267 267 268 270 270 271 268 265 264 263 261 260 260 259 257 256 256 254 254 253 252 253 253 253 254 254 254 254 255 254 254 255 254 253 255 255 255 255 256 258 261 263 265 266 267 268 269 270 271 273 274 275 275 275 274 272 273
270 270 270 270 267 266 266 266 267 270 265 263 264 263 261 260 261 260 258 257 256 254 253 255 255 254 253 252 253 253 254 254 254 253 255 255 254 254 254 254 255 255 256 257 259 262 264 265 265 267 268 268 269 269 271 272 273 273 273 271 270 270
271 271 270 271 270 267 266 265 266 265 262 263 263 261 260 260 260 260 258 256 255 255 254 255 256 256 254 254 253 254 253 253 254 254 254 254 254 254 254 254 255 256 257 259 261 262 263 263 265 267 267 268 269 271 272 273 271 271 270 269 269 268
270 271 271 272 271 267 265 265 264 263 262 262 261 260 261 261 260 258 256 255 254 254 254 254 254 255 255 255 254 254 255 255 254 254 255 255 256 256 256 256 257 259 259 260 261 262 262 265 267 267 271 271 273 272 272 271 271 271 269 270 271 264
271 271 271 272 270 267 265 264 263 262 262 261 261 261 262 261 259 257 257 256 255 254 254 255 254 254 255 254 254 252 253 257 262 259 256 257 261 265 266 265 260 261 262 262 263 264 266 267 268 272 273 273 273 274 274 273 273 273 270 271 269 264
269 270 270 271 268 266 265 264 263 261 261 261 261 261 262 260 259 258 258 256 256 256 256 255 255 255 254 254 254 253 254 254 257 263 267 267 267 268 269 270 271 272 272 269 268 270 272 272 272 272 272 273 273 274 273 273 272 271 270 270 264 259
268 268 270 270 268 266 264 264 263 261 261 260 260 261 261 260 261 260 259 258 258 258 257 257 257 256 255 255 255 254 254 253 254 256 262 265 267 268 269 270 270 271 271 271 271 270 268 269 271 271 272 272 273 272 272 272 271 270 269 269 265 257
270 270 270 267 266 265 264 263 262 261 260 259 259 259 259 258 259 260 259 259 258 258 258 257 257 257 257 255 253 253 253 253 253 254 256 259 263 265 267 268 269 270 270 271 271 270 270 270 270 271 271 272 272 271 271 270 268 267 267 266 259 255
269 268 267 266 265 265 263 263 262 260 259 258 258 258 258 258 258 260 260 259 258 258 258 258 257 257 256 255 254 253 253 254 254 253 253 254 255 258 261 265 266 266 267 267 268 268 269 269 269 270 271 271 270 270 269 267 263 265 265 263 258 256
266 265 265 264 263 262 262 262 261 259 258 258 257 257 257 258 259 260 259 258 258 258 258 258 258 257 255 254 254 254 254 254 254 255 254 253 254 255 256 256 257 260 263 263 264 266 268 268 269 269 270 270 269 268 267 264 256 256 256 256 255 255
264 263 260 261 261 261 261 261 258 258 258 257 257 257 258 258 259 259 259 258 258 257 258 257 256 256 255 254 254 254 254 254 254 255 254 255 255 255 254 255 256 256 259 262 264 266 267 267 268 268 269 268 267 266 264 255 254 254 254 255 255 255

ECMWFFLT1_sfc_thetae_048.txt.gz
Theta_e
287 287 286 287 287 287 287 287 287 287 288 287 287 287 287 287 287 287 287 287 287 286 286 285 285 285 285 285 285 285 284 284 284 283 283 283 283 282 283 282 282 282 282 282 281 281 281 281 281 281 281 281 281 281 281 281 281 281 281 281 281 281
287 287 287 286 286 286 287 287 287 286 287 287 287 287 287 286 286 286 286 286 286 285 285 285 285 285 284 284 284 284 283 283 283 283 282 282 282 282 282 281 281 281 281 281 280 280 280 280 280 280 280 280 280 280 280 280 279 279 279 280 281 281
287 287 287 287 287 287 287 286 286 286 287 287 287 286 286 286 286 286 286 285 285 284 284 284 284 284 284 283 283 283 283 282 282 282 282 282 281 281 281 280 280 280 280 279 279 279 279 279 279 279 279 279 278 278 278 278 278 278 278 279 278 279
287 287 287 287 286 286 286 286 287 286 286 287 286 286 286 286 286 286 285 285 285 284 284 284 283 283 283 283 282 282 282 281 281 281 280 280 280 280 279 279 279 279 279 278 278 278 278 278 278 277 277 277 277 277 278 277 277 277 277 277 277 278
288 287 286 286 286 286 286 286 286 286 286 286 287 286 286 286 286 286 285 285 284 284 283 283 282 282 282 282 281 280 280 280 279 279 279 279 279 279 278 278 278 277 277 277 277 277 277 277 276 276 276 276 276 276 276 277 276 276 276 276 277 277
287 286 286 286 286 286 286 286 286 287 286 286 286 286 286 286 286 285 285 284 284 283 282 282 282 282 282 281 280 279 279 279 278 278 278 278 278 277 277 277 276 276 276 276 276 276 276 275 275 275 276 275 275 275 275 276 276 276 276 276 276 276
286 286 286 286 286 286 286 286 286 286 286 286 286 286 286 286 286 285 284 284 283 282 282 282 282 281 281 280 280 278 278 278 278 277 276 277 277 276 276 276 276 275 276 275 275 275 275 275 274 274 275 275 275 275 275 275 276 276 276 276 276 276
287 286 286 286 286 286 286 286 286 286 286 286 286 286 285 285 285 284 284 284 283 282 282 281 281 281 280 279 278 278 277 277 276 276 276 276 275 275 275 275 275 275 274 274 274 274 274 274 274 274 274 274 274 275 275 275 276 276 276 276 276 276
286 286 286 286 286 286 286 286 286 286 286 285 285 285 284 284 284 284 284 283 283 282 282 281 281 280 279 279 278 277 276 276 275 275 275 275 274 274 274 274 273 274 273 273 273 273 273 273 273 273 273 273 274 275 275 275 275 275 275 275 275 276
287 286 286 286 286 286 286 286 286 286 285 284 284 284 284 285 284 284 283 283 283 282 282 281 281 280 279 278 277 276 275 275 274 274 274 273 273 273 273 273 272 273 273 272 272 272 272 272 272 273 273 273 274 275 275 275 274 275 275 275 275 275
287 286 286 286 286 286 286 286 286 285 285 285 285 284 284 285 284 283 283 283 282 282 282 280 280 279 278 276 276 275 274 274 273 273 273 272 272 272 272 271 271 271 272 272 271 271 272 271 272 272 272 273 274 275 274 275 274 274 274 274 275 275
287 287 286 286 286 286 285 285 285 285 285 284 285 284 284 284 284 283 283 283 283 282 281 279 278 277 276 275 274 274 273 273 272 272 272 271 271 271 271 270 271 271 271 271 271 271 271 271 271 270 271 274 274 274 275 274 274 274 274 274 274 274
287 287 286 286 286 286 286 286 286 286 286 285 285 285 285 284 284 283 283 283 282 281 280 278 277 277 275 275 274 273 272 272 271 271 270 270 269 269 269 269 270 270 270 270 270 270 270 270 270 270 273 274 275 275 274 274 274 274 274 274 274 273
287 287 286 286 286 286 286 286 286 286 286 287 286 286 285 284 284 283 283 283 281 280 279 278 276 275 274 273 272 271 271 270 269 269 269 269 269 269 269 269 269 269 269 269 269 269 270 270 270 271 272 273 275 275 275 274 274 273 273 274 273 273
288 288 287 287 287 287 287 287 287 286 287 287 287 286 284 284 284 284 283 282 280 279 278 277 275 274 273 272 271 270 269 268 268 268 268 268 269 268 268 269 268 268 269 268 268 268 269 269 269 270 272 273 274 275 275 274 274 273 273 273 272 272
288 288 288 287 287 287 288 288 287 288 288 288 287 285 284 284 283 283 283 281 279 278 277 276 274 273 272 271 270 269 268 268 268 269 269 268 268 268 268 267 267 267 267 267 267 267 268 268 268 270 272 273 274 275 275 274 274 273 272 272 272 271
288 288 288 288 288 288 288 287 288 288 287 286 284 284 283 283 283 282 281 279 278 277 275 274 273 272 271 269 269 268 268 268 268 267 268 268 268 268 267 267 266 266 265 266 266 266 266 267 268 270 271 272 273 275 275 273 272 271 271 271 272 271
289 288 288 289 288 287 287 287 287 287 286 285 283 282 282 282 282 281 279 278 277 275 275 274 273 271 270 269 268 268 268 268 267 267 268 267 267 267 266 266 266 265 265 265 264 264 265 267 268 269 270 272 273 274 273 272 271 271 271 270 271 271
289 289 288 287 287 286 286 286 286 285 283 282 282 281 281 281 280 279 278 277 276 274 274 273 272 271 270 269 268 267 268 268 267 267 267 266 267 267 266 265 265 265 264 264 263 263 264 265 266 268 270 272 273 273 271 271 271 270 270 270 271 271
287 287 287 286 286 286 285 285 284 283 281 280 280 279 279 279 279 279 277 277 276 274 274 273 272 270 269 268 267 267 268 268 268 266 266 266 266 266 265 264 264 264 263 263 262 263 262 263 266 268 270 271 272 272 271 271 270 270 270 270 271 272
285 284 284 284 283 284 284 283 282 281 280 279 279 278 278 278 279 278 277 277 275 274 273 272 271 270 269 268 268 267 267 266 266 266 265 265 265 264 264 264 264 263 263 263 262 263 263 263 264 267 269 270 271 272 271 271 270 270 270 270 271 272
282 281 282 282 283 282 281 281 281 280 280 279 278 277 277 278 279 279 278 277 275 273 272 271 269 269 268 267 267 266 266 266 265 264 264 264 265 264 264 263 263 261 262 262 262 262 263 263 263 265 268 270 271 273 272 271 270 270 270 271 271 272
283 283 283 283 282 280 280 280 280 279 279 278 277 277 278 279 280 279 277 275 273 271 270 270 268 267 267 267 266 265 264 265 265 264 263 262 263 263 263 261 261 261 261 262 262 263 263 263 263 264 268 270 271 272 272 271 271 272 272 272 272 273
281 282 281 281 280 279 279 279 279 279 279 277 276 277 280 280 279 277 275 273 271 270 268 267 267 266 265 264 264 264 263 263 263 263 262 263 263 261 260 260 261 262 262 263 263 263 263 264 265 265 267 270 271 272 274 273 273 273 273 272 272 273
280 280 281 280 278 278 278 278 278 279 278 276 277 279 279 279 277 275 273 272 270 268 266 266 264 264 263 262 263 263 263 262 261 261 261 261 260 260 259 260 260 261 261 262 263 264 264 264 265 267 268 270 271 273 274 275 274 275 274 273 272 273
281 280 281 279 277 277 277 277 277 278 276 277 279 279 277 276 274 273 271 269 268 266 265 263 263 262 262 262 262 262 262 262 261 260 261 261 261 262 262 263 262 262 262 262 263 264 265 266 267 268 269 270 272 273 274 274 275 276 274 274 273 273
280 280 280 278 275 275 275 276 277 276 275 278 279 276 274 272 271 269 269 268 266 265 264 262 262 261 261 261 261 261 262 260 259 262 262 260 262 262 263 263 263 262 263 263 263 264 265 267 268 269 270 271 272 272 273 274 275 276 276 274 273 273
279 278 279 277 275 274 274 275 277 276 277 279 277 275 272 270 268 268 268 267 265 264 262 261 261 260 260 260 261 262 263 263 261 263 264 262 263 262 262 263 263 262 262 262 263 264 266 267 268 269 269 270 271 271 273 274 275 275 275 274 273 273
277 277 277 277 276 274 273 273 275 277 279 276 275 272 270 268 268 268 268 266 265 263 261 261 262 261 259 259 261 262 262 263 263 263 263 263 263 262 262 262 261 262 262 262 263 264 266 267 268 268 269 270 270 271 271 272 273 274 274 273 272 271
277 277 277 277 278 275 273 273 273 274 275 273 272 269 268 267 268 268 267 266 264 263 261 262 261 261 261 260 260 261 261 261 262 262 263 263 263 263 263 262 262 262 263 263 264 265 266 266 267 268 269 270 270 271 272 273 273 272 272 271 271 267
276 277 277 278 279 277 273 272 273 273 273 271 269 268 267 268 267 268 267 265 263 263 262 263 262 262 263 262 260 262 263 262 261 262 262 263 263 264 264 264 264 263 263 264 264 265 265 266 266 268 271 271 273 272 272 272 272 272 272 271 272 266
277 277 277 278 279 277 274 273 272 272 272 269 267 267 268 268 267 267 266 264 263 263 261 262 262 262 263 263 262 261 260 261 264 263 262 262 263 265 267 266 264 264 264 264 265 265 265 266 268 272 273 273 273 274 274 274 275 274 272 272 271 266
276 276 276 277 277 276 274 273 272 271 269 268 266 266 268 268 267 267 266 263 263 262 261 262 262 262 262 262 262 262 262 262 263 266 268 267 266 267 268 269 270 270 270 266 265 267 271 273 273 273 273 273 273 273 274 274 274 273 272 271 267 265
275 275 275 277 276 275 274 272 272 270 268 267 266 266 267 267 268 268 267 264 264 262 262 262 262 261 261 261 261 261 261 262 263 264 267 268 269 270 271 271 272 272 272 273 272 271 270 272 273 273 272 272 273 273 273 273 272 271 270 270 267 263
276 276 276 276 275 274 273 272 271 268 266 266 265 265 266 266 267 267 267 265 264 263 262 262 262 261 261 261 261 261 261 261 262 263 265 266 268 268 270 270 271 271 272 272 272 272 272 272 272 272 272 272 272 273 273 272 270 269 269 267 264 261
277 277 275 274 273 272 271 270 270 267 266 264 264 264 265 265 266 267 267 266 264 263 263 262 262 262 262 262 262 261 261 261 262 262 263 263 264 264 265 267 268 269 269 269 270 270 270 270 271 271 271 271 272 272 272 269 266 267 266 264 261 260
275 274 273 271 271 269 269 269 268 265 264 263 263 263 264 264 264 265 264 262 263 264 264 263 264 263 263 262 261 260 260 260 260 260 259 260 261 263 264 263 264 266 266 265 266 267 268 269 270 270 270 270 271 270 269 267 264 262 262 261 260 260
271 271 270 268 269 268 268 268 264 263 263 262 262 262 263 263 263 264 265 264 262 263 264 264 263 263 263 262 261 260 260 260 260 259 260 259 259 259 259 260 261 261 263 264 266 267 268 268 269 269 269 270 270 268 267 263 262 261 261 260 260 259